STARLINK-11566, 62914

Orbit data source: Space-Track

STARLINK-11566, 62914 is a payload satellite owned by SpaceX/Seattle (US) in LEO that was launched on Sat, 08 Feb 2025 UTC via an FALCON 9 launch vehicle from the Air Force Eastern Test Range (AFETR). Payload-class satellites include a variety of spacecraft equipped with specific instruments for various scientific and technological missions. These include communications satellites like Starlink; space stations such as the ISS; scientific satellites like the Hubble; Earth observation satellites from companies like Planet Labs, Umbra, and HawkEye 360; GPS; miniature CubeSats for education and research; and military/defense satellites.

Loading next visibility...
Identifier
62914, 2025-027H
Orbit
LEO
Last TLE update
13 hours ago
Origin
Manufacturer
SpaceX/Seattle
Mission
Operational Commercial Communications
Bus & Motor
STARLINK V2M, Unknown motor
Mass
730 kg wet, ~700 kg dry
Launch date (UTC)
2025-02-08 (5 months ago)
Launch vehicle
FALCON 9
Launch site
Air Force Eastern Test Range (AFETR)
Object type
Payload
Rocket body
Debris
Shape & HBR
Box + 2 Pan, 29 m
Radar Cross Section
36.964 m², Large (>1 m²)

Expand to show TLE details & history

TLE from 13 hours ago
0 STARLINK-11566
1 62914U 25027H   25181.73778189  .00169153  00000-0  12918-2 0  9993
2 62914  43.0011  66.6136 0005582 297.4373  62.5927 15.70886029 23569
Epoch: 2025-06-30T17:42Z
TLE epoch observation values (Epoch: 2025-06-30T17:42:24.355Z)
Latitude
0.00001°
Longitude
-118.03116°
Altitude
354.406 km
Speed
7.699 km/s
True Right ascension
04h 26m 27s
True Declination
0° 00' 00"
Sunlit
Object was in daylight at epoch
Visualization orbit readout
Latitude
-4.97382°
Longitude
64.02619°
Altitude
357.901 km
Speed
7.695 km/s
Apparent Right ascension
13h 42m 04s
Apparent Declination
-55° 36' 24"
Sunlit
Object is in full shadow
Visualization observer readout
Local Sidereal Time
18:20:15
Azimuth
214.869° SW
Elevation
-22.216°
Doppler factor
1
Orbital elements
Apogee altitude
362.105 km
Perigee altitude
354.585 km
Semi-major axis
6,736.482 km
Eccentricity
0.00056
Inclination
43.0011°
RAAN
66.6136°
Arg. of periapsis
297.4373°
True anomaly
Unknown
Mean anomaly
62.5927°
Eccentric anomaly
Unknown
Mean motion
3.92549 °/min
Orbital period
91.71 mins
BSTAR
0.0012918
Loading maneuver chart data...
Loading SW <> Apogee altitude chart data...
Loading historical data...
Loading historical data...
Loading historical data...
Loading historical data...
Loading historical data...
Loading historical data...
Loading historical data...

STARLINK-11566 Visibility forecast

Observer location: undefined°, undefined°

Span
Click to sort rows by Start time (UTC) header in descending order
Start Az.
Max El. time (UTC)
Max El. Az.
Max El.
End time (UTC)
End Az.
5 mins2025-07-01 19:52:25.300Z227.107° WSW2025-07-01 19:54:25.300Z174.513° S35.716°2025-07-01 19:57:25.300Z79.821° E
4 mins2025-07-01 21:29:25.300Z287.675° WNW2025-07-01 21:30:25.300Z323.97° NNW35.861°2025-07-01 21:33:25.300Z67.902° E
4 mins2025-07-01 23:05:25.300Z299.848° NW2025-07-01 23:07:25.300Z35.99° NE36.452°2025-07-01 23:09:25.300Z84.048° E
4 mins2025-07-02 00:41:25.300Z271.294° WNW2025-07-02 00:43:25.300Z187.978° SSW34.646°2025-07-02 00:45:25.300Z135.015° SSE
|